Regional Weather Roundup
Issued by NWS

Home | Current Version | Previous Version | Text Only | Print | Product List | Glossary Off
Versions: 1 2 3 4 5 6 7 8 9 10 11 12 13 14 15 16 17 18 19 20 21 22 23 24 25 26 27 28 29 30 31 32 33 34 35 36 37 38 39 40 41 42 43 44 45 46 47 48 49 50

000
ASUS43 KMKX 210120
RWRWI

WISCONSIN REGIONAL WEATHER ROUNDUP
NATIONAL WEATHER SERVICE MILWAUKEE/SULLIVAN WI
700 PM CST TUE FEB 20 2018

NOTE: "FAIR" INDICATES FEW OR NO CLOUDS BELOW 12,000 FEET WITH NO
SIGNIFICANT WEATHER AND/OR OBSTRUCTIONS TO VISIBILITY.

WIZ001-002-006>008-014>016-023>028-210200-
NORTHWEST WISCONSIN

CITY           SKY/WX    TMP DP  RH WIND       PRES   REMARKS
SUPERIOR ARPT  FAIR      15   6  69 W9        30.13R WCI   3
ASHLAND        CLOUDY    15  10  80 SW9       30.09R WCI   3
HAYWARD        MOCLDY    15   9  76 SW3       30.08R
SIREN          FAIR      15   7  68 W8        30.13R WCI   5
CUMBERLAND     FAIR      12   7  79 W6        30.10R WCI   3
RICE LAKE      FAIR      15  11  83 W3        30.12R
CHETEK         FAIR      16  11  81 W3        30.11R
LADYSMITH      CLOUDY    19  14  82 W14       30.09R WCI   5
EAU CLAIRE     FAIR      19  12  74 W9        30.12R WCI   8
MENOMONIE      FAIR      19  12  74 W9        30.15R WCI   8
NEW RICHMOND   MOCLDY    16   8  71 W6        30.15R WCI   7
OSCEOLA        FAIR      17   8  65 W12       30.19R WCI   5
$$

WIZ003>005-009-010-017-018-210200-
NORTH CENTRAL WISCONSIN

CITY           SKY/WX    TMP DP  RH WIND       PRES   REMARKS
MANITOWISH WTR CLOUDY    19  19 100 W8G17     29.98R WCI   9
ARBOR VITAE    CLOUDY    22  20  93 NW7       29.96R FOG     WCI  13
WOODRUFF       CLOUDY    22  20  93 NW7       29.96R FOG     WCI  13
RHINELANDER    CLOUDY    22  21  96 W12G22    29.96R WCI  10
EAGLE RIVER    CLOUDY    21  19  93 NW10      29.96R WCI  10
LAND O LAKES   CLOUDY    20  18  91 NW6       29.97R WCI  13
PHILLIPS       CLOUDY    18  15  90 W5        30.03R WCI  11
TOMAHAWK       CLOUDY    21  19  90 W12       30.00R WCI   9
MEDFORD        CLOUDY    19  16  88 W10G18    30.03R WCI   8
MERRILL        CLOUDY    23  20  90 W8        30.03R WCI  14
$$

WIZ029-030-035-036-043>047-210200-
CENTRAL WISCONSIN

CITY           SKY/WX    TMP DP  RH WIND       PRES   REMARKS
WAUSAU         CLOUDY    23  19  85 W12       30.01R WCI  12
MOSINEE        CLOUDY    23  21  93 W13       30.03R WCI  11
MARSHFIELD     CLOUDY    21  17  84 NW17      30.04R WCI   7
STEVENS POINT  CLOUDY    22  21  94 W6        30.05R WCI  15
WAUPACA        CLOUDY    29  23  79 W13       30.07R WCI  18
WAUTOMA        CLOUDY    26  22  84 W15       30.08R WCI  14
WISC RAPIDS    CLOUDY    24  18  77 NW13G21   30.08R WCI  12
CAMP DOUGLAS   CLOUDY    25  21  86 W15G23    30.10R WCI  12
$$

WIZ011>013-019>022-031-037>040-048>050-210200-
NORTHEAST WISCONSIN

CITY           SKY/WX    TMP DP  RH WIND       PRES   REMARKS
ANTIGO         CLOUDY    23  22  95 NW10G17   29.97R WCI  12
SHAWANO        CLOUDY    30  25  83 W10G16    30.03R WCI  21
OCONTO         CLOUDY    32  29  88 W10       29.99R WCI  24
STURGEON BAY   CLOUDY    33  30  88 W15       29.98R WCI  23
GREEN BAY      CLOUDY    31  25  78 W16       30.03R WCI  20
MANITOWOC      CLOUDY    34  30  85 W15       30.02R WCI  24
APPLETON       CLOUDY    28  25  86 W17       30.01R WCI  16
CLINTONVILLE   CLOUDY    28  22  79 W9G21     30.05R WCI  19
OSHKOSH        CLOUDY    30  25  81 W12G24    30.04R WCI  20
$$

WIZ032>034-041-042-053>061-210200-
SOUTHWEST WISCONSIN

CITY           SKY/WX    TMP DP  RH WIND       PRES   REMARKS
LA CROSSE      CLOUDY    23  17  78 NW16      30.16R WCI  10
SPARTA         CLOUDY    23  20  88 NW8       30.14R WCI  13
VIROQUA        CLOUDY    23  22  97 W8        30.10R WCI  13
BOSCOBEL       CLOUDY    28  19  69 W8        30.15R WCI  20
PRAIRIE DU CHI CLOUDY    25  18  73 W18       30.17R WCI  12
PLATTEVILLE    CLOUDY    28  25  89 W12G18    30.12R WCI  17
$$

WIZ056-057-062-063-064-067-068-210200-
SOUTH CENTRAL WISCONSIN

CITY           SKY/WX    TMP DP  RH WIND       PRES   REMARKS
REEDSBURG      CLOUDY    26  22  84 W8G17     30.11R WCI  18
BARABOO/DELLS  CLOUDY    27  22  84 W10G16    30.08R WCI  17
LONE ROCK      CLOUDY    28  22  78 NW14      30.13R WCI  17
MINERAL POINT  CLOUDY    30  28  93 W12G17    30.09R WCI  21
MADISON        CLOUDY    30  26  85 NW7       30.08R WCI  23
MIDDLETON      CLOUDY    31  28  85 W12       30.08R WCI  22
WATERTOWN      CLOUDY    32  31  94 W12G18    30.05R WCI  23
MONROE         CLOUDY    30  27  86 W17G24    30.07R WCI  18
JANESVILLE     CLOUDY    34  34 100 W14       30.05R WCI  24
$$

WIZ051-052-058>065-066-070>072-210200-
SOUTHEAST WISCONSIN

CITY           SKY/WX    TMP DP  RH WIND       PRES   REMARKS
MILWAUKEE      MOCLDY    38  35  89 W12       30.01R WCI  30
WAUKESHA       CLOUDY    34  30  86 W15       30.03R WCI  24
MILWAUKEE/TIMM CLOUDY    36  30  80 W10G18    30.03R WCI  28
RACINE         CLOUDY    37  36  96 W8        30.02R WCI  31
BURLINGTON     CLOUDY    35  32  90 W9        30.03R WCI  27
KENOSHA        CLOUDY    37  34  89 W10       30.01R WCI  30
FOND DU LAC    CLOUDY    32  26  78 W14G24    30.05R WCI  22
SHEBOYGAN      CLOUDY    34  32  92 W13       30.01R WCI  25
WEST BEND      CLOUDY    34  32  93 W9G23     30.02R WCI  26
JUNEAU         CLOUDY    31  28  90 W7        30.06R WCI  24
$$

LSZ147-162-210200-
LAKE SUPERIOR

STATION/POSITION TIME  TEMP    WIND        PRES    WAVE
                       AIR SEA DIR/SP/G            HT/PER
                 (UTC) (F)     (DEG/KT/KT) (MB)    (FT/S)
DEVILS ISLAND    0000   19     280/ 19/ 22 1017.7R
SAXON HARBOR     0040   18     240/  5/  9 1017.9R
$$

LMZ867-665-643>646-210200-
LAKE MICHIGAN

STATION/POSITION TIME  TEMP    WIND        PRES    WAVE
                       AIR SEA DIR/SP/G            HT/PER
                 (UTC) (F)     (DEG/KT/KT) (MB)    (FT/S)
NORTHPORT PIER   0030   33                 1013.9R
KEWAUNEE LAKESHO 0054   35     280/ 10/ 17 1015.0R
SHEBOYGAN LAKESH 0000   36     270/  9/ 10 1015.8R
PORT WASHINGTON  0030   37     290/  7/ 12 1017.3R
MILWAUKEE LAKESH 0100   38     290/ 10/ 14   N/A
KENOSHA   LAKESH 0000   38     280/  8/ 14 1015.9
$$

TC  - TEMPERATURE IN CELSIUS
VSB - VISIBILITY IN STATUTE MILES
WCI - WIND CHILL INDEX
HX  - HEAT INDEX





USA.gov is the U.S. government's official web portal to all federal, state and local government web resources and services.